Content
SEND FEEDBACK

Daily
Averages
Monthly
Summary
United States of America

HACKBERRY, LOUISIANA


Home > North America > United States > Louisiana
Elevation: 1 foot     Latitude: 29 53N     Longitude: 093 25W

WEATHER
 
SELECT A DAY
Number of Records: 198,678;   Date Range: 11/22/06 - 12/16/14
 
SHARE

PRINT THIS DATA

[ ← Previous Day ]
WEATHER ALMANAC - FEBRUARY 13, 2013
[ Next Day → ]
[ °C ]   °F
Weather ElementAverageHighLow
Temperature52.2 °F60.8 °F (2:15 pm)44.6 °F (10:15 pm)
Dewpoint43.5 °F51.8 °F (12:35 am)39.2 °F (4:55 pm)
Humidity73.7 %94 % (1:15 am)48 % (3:35 pm)
Barometer30.04 in30.10 in (10:55 pm)29.95 in (12:35 am)
Wind Speed8.8 mph19.6 mph (9:15 am)
Wind Gust27.6 mph (9:35 am)
Weather ElementAverage
Visibility10 mi
Wind DirectionNW (309.9 °)

Weather ElementTotal
Precipitation0.07 in
Heating Degree Days12.3 (Base 65)
Growing Degree Days2.7 (Base 50)
Averaged from 69 records on February 13, 2013
WEATHER CONDITIONS BREAKOUT
WIND DIRECTION BREAKOUT
WEATHER BY HOUR - FEBRUARY 13, 2013
[ °C ]   °F
Local TimeTemperatureDewpointHumidityBarometerVisibilityWind DirectionWind SpeedGust SpeedPrecipitationEventsConditions
12:35 AM55.4 °F51.8 °F88 %29.95 in10.0 miWNW (300°)5.8 mphClear
12:55 AM55.4 °F51.8 °F88 %29.98 in10.0 miWest (270°)6.9 mphClear
1:15 AM53.6 °F51.8 °F94 %29.98 in10.0 miWest (280°)5.8 mphScattered Clouds
1:35 AM53.6 °F51.8 °F94 %29.98 in10.0 miWNW (290°)5.8 mphScattered Clouds
2:15 AM53.6 °F50.0 °F88 %29.98 in10.0 miWest (280°)9.2 mphScattered Clouds
2:35 AM53.6 °F48.2 °F82 %29.98 in10.0 miWNW (290°)9.2 mphClear
2:55 AM53.6 °F48.2 °F82 %30.00 in10.0 miWNW (290°)9.2 mphClear
3:15 AM53.6 °F48.2 °F82 %30.01 in10.0 miWNW (290°)8.1 mphClear
3:35 AM51.8 °F46.4 °F82 %29.99 in10.0 miWNW (300°)9.2 mph19.6 mphLight Drizzle
3:55 AM51.8 °F46.4 °F82 %30.01 in10.0 miWNW (290°)10.4 mphClear
4:15 AM51.8 °F46.4 °F82 %30.01 in10.0 miWNW (300°)13.8 mphScattered Clouds
4:35 AM51.8 °F46.4 °F82 %30.00 in10.0 miWNW (300°)8.1 mphRainLight Rain
4:55 AM50.0 °F44.6 °F82 %29.99 in10.0 miNW (310°)8.1 mphLight Drizzle
5:15 AM50.0 °F46.4 °F87 %30.00 in10.0 miWNW (300°)5.8 mph0.01 inRainRain
5:35 AM50.0 °F46.4 °F87 %29.99 in10.0 miNW (320°)9.2 mph0.03 inRainLight Rain
5:55 AM50.0 °F44.6 °F82 %30.04 in10.0 miWNW (290°)6.9 mph0.03 inOvercast
6:15 AM48.2 °F44.6 °F87 %30.02 in10.0 miNW (320°)12.7 mphOvercast
6:35 AM48.2 °F44.6 °F87 %30.02 in10.0 miNW (320°)8.1 mphOvercast
6:55 AM48.2 °F44.6 °F87 %30.07 in10.0 miWNW (290°)8.1 mphOvercast
7:15 AM48.2 °F44.6 °F87 %30.07 in10.0 miWNW (300°)6.9 mphMostly Cloudy
7:35 AM48.2 °F44.6 °F87 %30.08 in10.0 miNW (310°)8.1 mphMostly Cloudy
7:55 AM48.2 °F44.6 °F87 %30.08 in10.0 miNW (320°)8.1 mphMostly Cloudy
8:15 AM50.0 °F44.6 °F82 %30.06 in10.0 miNNW (330°)11.5 mph17.3 mphMostly Cloudy
8:35 AM50.0 °F42.8 °F76 %30.06 in10.0 miNNW (330°)13.8 mph18.4 mphScattered Clouds
8:55 AM50.0 °F42.8 °F76 %30.04 in10.0 miNNW (330°)16.1 mphMostly Cloudy
9:15 AM50.0 °F42.8 °F76 %30.06 in10.0 miNNW (330°)19.6 mph25.3 mphScattered Clouds
9:35 AM50.0 °F42.8 °F76 %30.06 in10.0 miNW (320°)18.4 mph27.6 mphClear
9:55 AM50.0 °F42.8 °F76 %30.08 in10.0 miNNW (330°)17.3 mph25.3 mphClear
10:15 AM51.8 °F44.6 °F76 %30.06 in10.0 miNW (320°)16.1 mph26.5 mphClear
10:35 AM51.8 °F44.6 °F76 %30.06 in10.0 miNNW (330°)17.3 mph25.3 mphClear
10:55 AM51.8 °F42.8 °F71 %30.09 in10.0 miNNW (330°)9.2 mphClear
11:15 AM51.8 °F42.8 °F71 %30.05 in10.0 miNNW (340°)16.1 mph20.7 mphClear
11:35 AM53.6 °F42.8 °F67 %30.05 in10.0 miNNW (340°)16.1 mph23.0 mphClear
11:55 AM53.6 °F42.8 °F67 %30.05 in10.0 miNNW (340°)12.7 mph21.9 mphClear
12:15 PM55.4 °F42.8 °F63 %30.05 in10.0 miNNW (340°)15.0 mph18.4 mphClear
12:35 PM57.2 °F42.8 °F59 %30.05 in10.0 miNorth (350°)9.2 mph20.7 mphClear
12:55 PM57.2 °F42.8 °F59 %30.05 in10.0 miNorth (360°)9.2 mphClear
1:15 PM59.0 °F42.8 °F55 %30.04 in10.0 miNNW (330°)8.1 mph11.5 mphClear
1:35 PM59.0 °F42.8 °F55 %30.03 in10.0 miNNW (340°)12.7 mph16.1 mphClear
1:55 PM59.0 °F42.8 °F55 %30.02 in10.0 miNNW (340°)8.1 mphClear
2:15 PM60.8 °F42.8 °F52 %30.02 in10.0 miNNW (330°)8.1 mphClear
2:35 PM60.8 °F42.8 °F52 %30.02 in10.0 miNNW (330°)5.8 mphClear
2:55 PM60.8 °F42.8 °F52 %30.01 in10.0 miNNW (330°)8.1 mphClear
3:15 PM60.8 °F42.8 °F52 %30.01 in10.0 miNorth (350°)10.4 mphClear
3:35 PM60.8 °F41.0 °F48 %30.02 in10.0 miNorth (350°)10.4 mphClear
3:55 PM60.8 °F42.8 °F52 %30.01 in10.0 miNorth (360°)8.1 mphClear
4:15 PM59.0 °F41.0 °F51 %30.02 in10.0 miNNW (340°)8.1 mphClear
4:35 PM59.0 °F41.0 °F51 %30.02 in10.0 miNorth (360°)9.2 mphClear
4:55 PM59.0 °F39.2 °F48 %30.03 in10.0 miNorth (10°)10.4 mphClear
5:15 PM57.2 °F39.2 °F51 %30.03 in10.0 miNorth (10°)6.9 mphClear
5:35 PM55.4 °F39.2 °F54 %30.04 in10.0 miNorth (350°)6.9 mphClear
5:55 PM53.6 °F39.2 °F58 %30.04 in10.0 miNorth (360°)6.9 mphClear
6:15 PM51.8 °F41.0 °F67 %30.05 in10.0 miNorth (350°)6.9 mphClear
6:35 PM50.0 °F41.0 °F71 %30.06 in10.0 miNorth (350°)5.8 mphClear
6:55 PM50.0 °F41.0 °F71 %30.06 in10.0 miNorth (350°)6.9 mphClear
7:15 PM48.2 °F41.0 °F76 %30.07 in10.0 miNorth (350°)5.8 mphClear
7:35 PM48.2 °F41.0 °F76 %30.07 in10.0 miNorth (350°)4.6 mphClear
7:55 PM48.2 °F41.0 °F76 %30.07 in10.0 miNorth (360°)4.6 mphClear
8:15 PM48.2 °F41.0 °F76 %30.08 in10.0 miNorth (360°)4.6 mphClear
8:35 PM48.2 °F41.0 °F76 %30.08 in10.0 miNorth (360°)5.8 mphClear
8:55 PM48.2 °F41.0 °F76 %30.09 in10.0 miNorth (360°)5.8 mphClear
9:15 PM46.4 °F41.0 °F81 %30.08 in10.0 miNorth (360°)4.6 mphClear
9:35 PM46.4 °F41.0 °F81 %30.09 in10.0 miNorth (350°)5.8 mphClear
9:55 PM46.4 °F41.0 °F81 %30.09 in10.0 miNorth (350°)5.8 mphClear
10:15 PM44.6 °F41.0 °F87 %30.09 in10.0 miNorth (350°)5.8 mphClear
10:35 PM44.6 °F41.0 °F87 %30.09 in10.0 miNorth (350°)4.6 mphClear
10:55 PM44.6 °F41.0 °F87 %30.10 in10.0 miCalmClear
11:15 PM44.6 °F41.0 °F87 %30.10 in10.0 miCalmClear
11:55 PM44.6 °F41.0 °F87 %30.10 in10.0 miNorth (360°)3.5 mphClear
Hourly data recorded from KUXL, located miles away from Hackberry, Louisiana







STORIES FROM OUR PARTNERS